Regional Weather Roundup
Issued by NWS Newport/Morehead, NC

Current Version | Previous Version | Graphics & Text | Print | Product List | Glossary Off
Versions: 1 2 3 4 5 6 7 8 9 10 11 12 13 14 15 16 17 18 19 20 21 22 23 24 25 26 27 28 29 30 31 32 33 34 35 36 37 38 39 40 41 42 43 44 45 46 47 48 49 50

804
ASUS42 KMHX 221313
RWRMHX
WEATHER ROUNDUP FOR EASTERN NORTH CAROLINA
NATIONAL WEATHER SERVICE NEWPORT/MOREHEAD CITY NC
900 AM EDT THU JUN 22 2017

NOTE: "FAIR" INDICATES FEW OR NO CLOUDS BELOW 12,000 FEET
WITH NO SIGNIFICANT WEATHER AND/OR OBSTRUCTIONS TO VISIBILITY

NCZ015>017-031-032-045>047-102-103-221400-
NORTH COAST

CITY           SKY/WX    TMP DP  RH WIND       PRES   REMARKS
EDENTON        PTSUNNY   79  73  83 CALM      30.09S
ELIZABETH CITY CLOUDY    79  75  87 W9        30.07S
KITTY HAWK     MOSUNNY   77  73  85 CALM      30.07S
MANTEO         MOSUNNY   78  73  83 W6        30.09S

$$

NCZ045>047-081-094-103-104-221400-
CENTRAL COAST

CITY           SKY/WX    TMP DP  RH WIND       PRES   REMARKS
FRISCO         CLOUDY    81  74  79 W8        30.10S

$$

NCZ095-097-098-100-101-221400-
SOUTHERN COAST

CITY           SKY/WX    TMP DP  RH WIND       PRES   REMARKS
BEAUFORT       CLOUDY    82  75  79 W10       30.10S
CEDAR ISLAND   NOT AVBL
JACKSONVILLE   PTSUNNY   80  77  90 SW6       30.10S
PINEY ISLAND   PTSUNNY  N/A N/A N/A W10       30.10S
WILMINGTON     CLOUDY    81  77  88 SW8       30.11S


$$

NCZ011>013-027>030-043-044-078>080-089-090>093-098-221400-
COASTAL PLAIN

CITY           SKY/WX    TMP DP  RH WIND       PRES   REMARKS
AHOSKIE        NOT AVBL
CLINTON        CLOUDY    75  75 100 SW8       30.12R FOG
ELIZABETHTOWN  NOT AVBL
GOLDSBORO      PTSUNNY   77  77 100 SW7       30.08S
GREENVILLE     PTSUNNY   77  75  94 SW3       30.11S
HAVELOCK         N/A     80  73  79 W8        30.11S
KENANSVILLE    PTSUNNY   79  73  83 W6        30.11S
KINSTON        MOSUNNY   77  73  88 W6        30.10F
NEW BERN       PTSUNNY   79  75  87 SW3       30.11F
RICHLANDS      CLOUDY    79  75  87 W6        30.11F
ROCKY MOUNT    CLOUDY    77  74  90 SW7       30.09S
WASHINGTON     CLOUDY    76  73  92 W3        30.10S
WHITEVILLE     CLOUDY    78  76  92 SW3       30.11S

$$

AMZ130-135-150-152-154-156-158-170-250-252-270-ANZ085-086-088-633-658-670-221400-
MARINE OBSERVATIONS

STATION/POSITION TIME  TEMP    WIND        PRES    WAVE   SWELL
                       AIR SEA DIR/SP/G            HT/PER HT/PER
                 (UTC) (F)     (DEG/KT/KT) (MB)    (FT/S) (FT/S)
CHESAPEAKE LIGHT NOT AVBL
64 E VA BEACH    1250   71 70  230/  8/ 10 1018.4    2/ 5   2/ 5
DUCK             1248   77 62  250/ 13/ 16 1018.0
2 E DUCK         NOT AVBL
OREGON INLET     1236   78 77  250/ 10/ 12 1018.5
13E OREGON INLT  1248      69                N/A     3/ 7   2/ 7
HATTERAS CG      1248   79 78  260/  7/  9 1019.0
DIAMOND BUOY     1250   78 79  270/  8/ 10 1019.3    3/ 7   2/ 7
CAPE LOOKOUT     1300   80     280/  7/  9 1019.1
BEAUFORT LAB     1248   80 77  290/  6/  9 1018.8
30 SE NEW RVR IN 1208   79 80  270/  8/ 10 1019.7
30 SE NEW RVR IN 1213      80                N/A     3/ 7
27 SE WRIGHTSVLE 1208   78 79  260/  6/  8 1019.1
5 SE WRIGHTSVLE  1208   78 78  220/  2/  4 1019.4
225 S CAPE HAT   1250   80 82  210/ 12/ 12 1021.3    4/ 9   3/ 9
41 SE CHARLESTON 1250   81 81  220/  6/  8 1019.6    3/ 8   3/ 8

$$




USA.gov is the U.S. government's official web portal to all federal, state and local government web resources and services.